sat.trackr.live / text

‹ back to catalog

STARLINK-3983

NORAD 52618 · 2022-052W

PAYLOAD ACTIVE UNKNOWN

§ Identity

Operator
Country
US
Launch date
2022-05-14
Launch site
AFETR
Launch vehicle
Mass (kg)
RCS (m²)

Purposes: comms

External: N2YO · Heavens-Above · Gunter

§ Orbital elements

Epoch: 2026-05-25T02:57:52.807104Z

Period
95.44 min
Inclination
53.2163°
Eccentricity
0.0000433
Mean motion
15.08841506 rev/d
Perigee alt
539.4 km
Apogee alt
540.0 km
Semi-major
6,917.9 km
B*
7.7239e-5
RAAN
285.9939°
Arg perigee
245.0598°
Mean anomaly
115.0349°
Rev number
22,252

§ Raw data

STARLINK-39831 52618U 22052W   26145.12352786  .00000942  00000+0  77239-4 0  99912 52618  53.2163 285.9939 0000433 245.0598 115.0349 15.08841506222526

JSON: /api/v1/satellites/52618 · /tle

For live sub-satellite position, see the globe view (requires WebGL).

§ Visibility from observer

Set your observer location to see the next 7 days of passes ≥ 10°. The values pass through the URL so the page stays shareable.

No JS? Fill the form by hand. The geolocation button needs JavaScript.